Date String (YYYY-MM-DD hh:mm:ss) UTC,Instrument flags,absolute air pressure of the measurement (hPa),sample flow rate (lpm),inlet stack bypass flow (lpm),air temperature of the measurement (°C),ambient temperature measured by the external sensor (°C),aerosol sample conditioner tube jacket temperature (°C),OPC LED temperature (°C),internal box temperature (°C),relative humidity of the measurement (%),span deviation,mass concentration of particles derived from Lorenz-Mie calculation of OPC scattering (μg/m³),mass concentration of particles derived from Lorenz-Mie calculation of OPC scattering (μg/m³),mass concentration of particles derived from Lorenz-Mie calculation of OPC scattering (μg/m³)
DateTimeUTC,F1_M11,P_M11,Q1_M11,Q2_M11,T1_M11,T2_M11,T3_M11,T4_M11,T5_M11,U1_M11,ZSPAN_M11,X0_M11,X2_M11,X1_M11
2024-04-10 01:00:00,SystemResetWarning,0826.2,5.00,000.00,025.7,024.3,000.0,034.4,027.4,010.9,0000.0,0019.35,0006.23,0004.98
2024-04-10 01:01:00,SystemResetWarning,0826.2,5.00,000.00,025.7,024.6,000.0,034.4,027.6,010.9,0004.5,0018.47,0006.20,0004.98
2024-04-10 01:02:00,SystemResetWarning,0826.2,5.00,000.00,025.8,024.8,000.0,034.4,027.6,010.8,0004.0,0018.26,0006.17,0004.98
2024-04-10 01:03:00,SystemResetWarning,0826.2,5.00,000.00,025.8,025.0,000.0,034.4,027.7,010.9,0000.0,0018.65,0006.17,0004.98
2024-04-10 01:04:00,SystemResetWarning,0826.2,5.00,000.00,025.9,025.1,000.0,034.4,027.8,010.9,0000.0,0017.75,0006.13,0004.95
2024-04-10 01:05:00,SystemResetWarning,0826.2,5.00,000.00,025.9,025.3,000.0,034.4,027.9,010.9,0001.9,0017.77,0006.11,0004.95
2024-04-10 01:06:00,SystemResetWarning,0826.3,4.99,000.00,026.0,025.4,000.0,034.4,027.9,010.9,0000.0,0018.78,0006.11,0004.92
2024-04-10 01:07:00,SystemResetWarning,0826.3,5.00,000.00,026.0,025.5,000.0,034.4,028.0,010.9,0000.0,0018.43,0006.06,0004.90
2024-04-10 01:08:00,SystemResetWarning,0826.3,5.00,000.00,026.1,025.6,000.0,034.4,028.0,010.7,0000.0,0018.97,0006.06,0004.89
2024-04-10 01:09:00,SystemResetWarning,0826.4,5.01,000.00,026.2,025.6,000.0,034.5,028.1,010.5,0000.0,0017.98,0006.09,0004.88
2024-04-10 01:10:00,SystemResetWarning,0826.4,5.01,000.00,026.2,025.7,000.0,034.5,028.1,010.5,0000.0,0018.63,0006.08,0004.86
2024-04-10 01:11:00,SystemResetWarning,0826.4,5.01,000.00,026.2,025.7,000.0,034.5,028.2,010.3,0000.0,0019.03,0006.08,0004.85
2024-04-10 01:12:00,SystemResetWarning,0826.4,5.00,000.00,026.3,025.8,000.0,034.5,028.2,010.1,0000.0,0019.76,0006.10,0004.85
2024-04-10 01:13:00,SystemResetWarning,0826.4,4.99,000.00,026.3,025.9,000.0,034.6,028.3,010.0,0000.0,0020.19,0006.10,0004.86
2024-04-10 01:14:00,SystemResetWarning,0826.4,4.99,000.00,026.4,025.9,000.0,034.6,028.3,009.9,0000.0,0020.00,0006.12,0004.86
2024-04-10 01:15:00,SystemResetWarning,0826.4,5.00,000.00,026.4,025.9,000.0,034.6,028.4,009.9,0000.0,0022.03,0006.14,0004.88
2024-04-10 01:16:00,SystemResetWarning,0826.4,5.00,000.00,026.5,026.0,000.0,034.7,028.4,009.9,0000.0,0022.67,0006.15,0004.89
2024-04-10 01:17:00,SystemResetWarning,0826.4,5.00,000.00,026.5,026.0,000.0,034.7,028.4,009.8,0000.0,0022.27,0006.24,0004.92
2024-04-10 01:18:00,SystemResetWarning,0826.4,5.00,000.00,026.5,026.0,000.0,034.8,028.4,009.7,0000.0,0021.21,0006.24,0004.93
2024-04-10 01:19:00,SystemResetWarning,0826.4,5.01,000.00,026.6,026.1,000.0,034.8,028.5,009.7,0000.0,0020.26,0006.23,0004.94
2024-04-10 01:20:00,SystemResetWarning,0826.4,5.01,000.00,026.6,026.1,000.0,034.8,028.5,009.7,0000.0,0020.12,0006.19,0004.96
2024-04-10 01:21:00,SystemResetWarning,0826.4,5.01,000.00,026.6,026.1,000.0,034.8,028.5,009.6,0000.7,0019.25,0006.16,0004.96
2024-04-10 01:22:00,SystemResetWarning,0826.5,5.00,000.00,026.7,026.1,000.0,034.9,028.6,009.6,0001.5,0019.49,0006.14,0004.99
2024-04-10 01:23:00,SystemResetWarning,0826.5,4.99,000.00,026.7,026.2,000.0,034.9,028.6,009.6,0000.0,0019.36,0006.12,0005.00
2024-04-10 01:24:00,SystemResetWarning,0826.6,5.01,000.00,026.7,026.1,000.0,035.0,028.6,009.6,0001.8,0018.70,0006.15,0005.01
2024-04-10 01:25:00,SystemResetWarning,0826.5,4.99,000.00,026.5,024.3,000.0,035.0,027.5,009.6,0004.2,0018.65,0006.16,0005.01
2024-04-10 01:26:00,SystemResetWarning,0826.4,5.00,000.00,025.9,021.8,000.0,035.0,026.1,009.9,0005.6,0018.25,0006.18,0005.03
2024-04-10 01:27:00,SystemResetWarning,0826.4,5.01,000.00,025.5,021.4,000.0,034.9,025.7,010.2,0006.1,0020.11,0006.16,0005.03
2024-04-10 01:28:00,SystemResetWarning,0826.4,5.01,000.00,025.3,021.8,000.0,034.7,025.9,010.3,0006.0,0020.06,0006.05,0005.02
2024-04-10 01:29:00,SystemResetWarning,0826.4,5.00,000.00,025.2,022.3,000.0,034.5,026.3,010.7,0006.3,0020.84,0006.07,0005.02
2024-04-10 01:30:00,SystemResetWarning,0826.5,5.00,000.00,025.3,022.8,000.0,034.4,026.7,011.2,0006.6,0022.41,0006.08,0005.00
2024-04-10 01:31:00,SystemResetWarning,0826.6,5.00,000.00,025.3,023.2,000.0,034.3,026.8,011.4,0006.5,0023.58,0006.10,0004.98
2024-04-10 01:32:00,SystemResetWarning,0826.6,5.00,000.00,025.3,023.6,000.0,034.2,027.0,011.6,0006.2,0024.41,0006.08,0004.95
2024-04-10 01:33:00,SystemResetWarning,0826.6,4.99,000.00,025.4,023.9,000.0,034.1,027.1,012.0,0006.7,0025.07,0006.11,0004.94
2024-04-10 01:34:00,SystemResetWarning,0826.6,5.00,000.00,025.4,024.2,000.0,034.1,027.2,012.0,0006.7,0025.53,0006.12,0004.93
2024-04-10 01:35:00,SystemResetWarning,0826.6,5.00,000.00,025.5,024.4,000.0,034.1,027.3,011.9,0006.3,0026.29,0006.13,0004.92
2024-04-10 01:36:00,SystemResetWarning,0826.6,5.00,000.00,025.5,024.6,000.0,034.1,027.4,011.7,0006.8,0026.27,0006.12,0004.91
2024-04-10 01:37:00,SystemResetWarning,0826.6,5.00,000.00,025.6,024.7,000.0,034.1,027.5,011.6,0007.5,0025.72,0006.11,0004.90
2024-04-10 01:38:00,SystemResetWarning,0826.6,4.99,000.00,025.6,024.8,000.0,034.1,027.5,011.5,0007.1,0023.86,0006.11,0004.90
2024-04-10 01:39:00,SystemResetWarning,0826.6,5.00,000.00,025.7,024.9,000.0,034.1,027.6,011.4,0006.3,0023.60,0006.16,0004.92
2024-04-10 01:40:00,SystemResetWarning,0826.6,5.00,000.00,025.7,025.0,000.0,034.1,027.7,011.2,0005.0,0023.70,0006.19,0004.94
2024-04-10 01:41:00,SystemResetWarning,0826.6,5.00,000.00,025.8,025.1,000.0,034.1,027.7,011.1,0005.3,0023.18,0006.26,0004.99
2024-04-10 01:42:00,SystemResetWarning,0826.6,5.00,000.00,025.8,025.2,000.0,034.1,027.7,011.0,0005.3,0022.64,0006.25,0005.04
2024-04-10 01:43:00,SystemResetWarning,0826.6,5.00,000.00,025.8,025.2,000.0,034.2,027.8,011.0,0005.5,0023.44,0006.36,0005.09
2024-04-10 01:44:00,SystemResetWarning,0826.7,5.00,000.00,025.9,025.3,000.0,034.2,027.8,010.9,0004.4,0021.97,0006.38,0005.10
2024-04-10 01:45:00,SystemResetWarning,0826.8,5.00,000.00,025.9,025.3,000.0,034.2,027.9,010.9,0004.4,0020.98,0006.37,0005.14
2024-04-10 01:46:00,SystemResetWarning,0826.8,5.00,000.00,026.0,025.4,000.0,034.2,027.9,010.8,0005.9,0020.14,0006.36,0005.18
2024-04-10 01:47:00,SystemResetWarning,0826.8,5.01,000.00,026.0,025.4,000.0,034.2,027.9,010.8,0004.4,0018.71,0006.31,0005.21
2024-04-10 01:48:00,SystemResetWarning,0826.8,4.99,000.00,026.0,025.5,000.0,034.3,028.0,010.7,0004.4,0018.98,0006.32,0005.23
2024-04-10 01:49:00,SystemResetWarning,0826.7,4.99,000.00,026.1,025.5,000.0,034.3,028.0,010.7,0003.9,0018.68,0006.32,0005.26
2024-04-10 01:50:00,SystemResetWarning,0826.8,5.00,000.00,026.1,025.5,000.0,034.3,028.0,010.6,0004.1,0018.44,0006.31,0005.28
2024-04-10 01:51:00,SystemResetWarning,0826.8,5.01,000.00,026.1,025.6,000.0,034.3,028.0,010.6,0004.6,0017.06,0006.26,0005.29
2024-04-10 01:52:00,SystemResetWarning,0826.8,5.01,000.00,026.1,025.6,000.0,034.4,028.1,010.5,0004.5,0016.74,0006.20,0005.28
2024-04-10 01:53:00,SystemResetWarning,0826.8,5.01,000.00,026.2,025.6,000.0,034.4,028.1,010.5,0004.3,0016.60,0006.22,0005.29
2024-04-10 01:54:00,SystemResetWarning,0826.9,4.99,000.00,026.2,025.6,000.0,034.4,028.1,010.8,0003.5,0014.97,0006.18,0005.29
2024-04-10 01:55:00,SystemResetWarning,0826.9,5.00,000.00,026.2,025.6,000.0,034.5,028.1,010.7,0003.4,0016.17,0006.20,0005.30
2024-04-10 01:56:00,SystemResetWarning,0826.9,4.99,000.00,026.2,025.6,000.0,034.5,028.2,010.9,0003.6,0016.40,0006.21,0005.31
2024-04-10 01:57:00,SystemResetWarning,0826.9,5.00,000.00,026.2,025.7,000.0,034.5,028.2,011.0,0003.0,0017.80,0006.18,0005.27
2024-04-10 01:58:00,SystemResetWarning,0826.9,5.01,000.00,026.3,025.7,000.0,034.5,028.2,011.4,0003.4,0018.09,0006.14,0005.23
2024-04-10 01:59:00,SystemResetWarning,0826.9,5.01,000.00,026.3,025.7,000.0,034.5,028.2,011.5,0003.9,0017.17,0006.12,0005.19
